Tracking 29892 objects as of 21-Nov-2024
HD Live streaming from Space Station
objects crossing your sky now

COSMOS 1156

Track COSMOS 1156 now!
10-day predictions
COSMOS 1156 is classified as:


NORAD ID: 11691
Int'l Code: 1980-012A
Perigee: 1,405.4 km
Apogee: 1,480.6 km
Inclination: 74.0 °
Period: 114.6 minutes
Semi major axis: 7813 km
RCS: 0.7253 m2 (medium)
Launch date: February 11, 1980
Source: Commonwealth of Independent States (former USSR) (CIS)
Launch site: PLESETSK MISSILE AND SPACE COMPLEX (PKMTR)
Your satellite tracking list
Your tracking list is empty




NASA's NSSDC Master Catalog

Two Line Element Set (TLE):
1 11691U 80012A   24325.77056406  .00000011  00000-0  16294-3 0  9997
2 11691  74.0212  82.6819 0048129  65.3933  88.4331 12.56885598 54332
Source of the keplerian elements: AFSPC